Flag for Switzerland Weather past 2 weeks in Sion, Valais, Switzerland

Now
32 °F

Chilly.


Feels Like: 32 °F
Forecast: 26 / 42 °F
Wind: 2 mph from Northeast

Location: Sion

Current Time: Dec 26, 2014 at 10:34:58 PM

Latest Report: Dec 26, 2014 at 9:00 PM


Visibility: N/A

Pressure: 30.37 "Hg

Humidity: 66%

Dew point: 22 °F

Location of SionLocation

Historic Weather in Sion — Graph

°F

Sion temperature yesterday

Maximum temperature yesterday: 47 °F (at 4:00 PM)
Minimum temperature yesterday: 27 °F (at 1:00 AM)
Average temperature yesterday: 37 °F

Past Weeks' High & Low Weather Summary

 TemperatureHumidityPressure
High51 °F (Dec 20, 2:00 PM)99% (Dec 18, 10:00 PM)30.67 "Hg (Dec 18, 10:00 PM)
Low25 °F (Dec 24, 6:00 AM)41% (Dec 26, 2:00 PM)29.90 "Hg (Dec 16, 3:00 PM)
Average38 °F80%30.29 "Hg
* Reported Dec 11 9:00 PM — Dec 26 9:00 PM, Sion, Weather by CustomWeather, © 2014

Note: Actual official high and low records may vary slightly from our data, if they occured in-between our weather recording intervals... More about our weather records

Advertising

Sion weather history for previous 24 hours

 ConditionsComfort  
Time TempWeatherWind HumidityBarometerVisibility
9:00 PM
Dec 26
32 °FChilly.2 mph66%30.37 "HgN/A
8:00 PM31 °FChilly.2 mph70%30.39 "HgN/A
7:00 PM33 °FChilly.1 mph68%30.39 "HgN/A
6:00 PM37 °FChilly.3 mph59%30.37 "HgN/A
5:00 PM38 °FChilly.5 mph56%30.37 "HgN/A
4:00 PM41 °FScattered clouds.9 mph49%30.36 "Hg16 mi
3:00 PM41 °FQuite cool.7 mph41%30.36 "HgN/A
2:00 PM42 °FQuite cool.9 mph41%30.37 "HgN/A
1:00 PM41 °FQuite cool.3 mph46%30.40 "HgN/A
12:00 PM40 °FChilly.6 mph52%30.45 "HgN/A
11:00 AM38 °FChilly.2 mph59%30.49 "HgN/A
10:00 AM37 °FPartly sunny.3 mph62%30.49 "Hg16 mi
9:00 AM35 °FChilly.1 mph67%30.47 "HgN/A
8:00 AM35 °FChilly.3 mph67%30.47 "HgN/A
7:00 AM36 °FPassing clouds.3 mph64%30.46 "Hg9 mi
6:00 AM37 °FChilly.1 mph63%30.44 "HgN/A
5:00 AM35 °FChilly.2 mph70%30.44 "HgN/A
4:00 AM38 °FPassing clouds.5 mph62%30.43 "Hg9 mi
3:00 AM38 °FChilly.5 mph65%30.43 "HgN/A
2:00 AM39 °FChilly.8 mph58%30.41 "HgN/A
1:00 AM40 °FPassing clouds.9 mph58%30.41 "Hg9 mi
12:00 AM41 °FQuite cool.8 mph56%30.40 "HgN/A
11:00 PM
Dec 25
40 °FQuite cool.12 mph58%30.39 "HgN/A
10:00 PM42 °FPassing clouds.5 mph58%30.38 "Hg12 mi
Weather by CustomWeather, © 2014

See weather overviewHow to use our weather pages